Regional Weather Roundup
Issued by NWS

Home | Current Version | Previous Version | Graphics & Text | Print | Product List | Glossary On
Versions: 1 2 3 4 5 6 7 8 9 10 11 12 13 14 15 16 17 18 19 20 21 22 23 24 25 26 27 28 29 30 31 32 33 34 35 36 37 38 39 40 41 42 43 44 45 46 47 48 49 50
000
ASUS43 KMPX 302001
RWRMN
WEATHER ROUNDUP FOR MINNESOTA
NATIONAL WEATHER SERVICE TWIN CITIES/CHANHASSEN MN
300 PM CDT SAT JUL 30 2016


NOTE: "FAIR" INDICATES FEW OR NO CLOUDS BELOW 12,000 FEET WITH NO
SIGNIFICANT WEATHER AND/OR OBSTRUCTIONS TO VISIBILITY. N/A MEANS
CURRENT SKY AND/OR WEATHER CONDITIONS ARE NOT AVAILABLE.

MNZ060>063-068>070-302100-
   Twin Cities Metro

CITY           SKY/WX    TMP DP  RH WIND       PRES   REMARKS
TWIN CITIES    PTSUNNY   79  62  56 SE6       30.00F
ST PAUL        SUNNY     81  64  56 SE10      30.01S
CRYSTAL        PTSUNNY   79  61  53 SW8       29.99F
BLAINE         PTSUNNY   82  63  51 SE6       30.00F
LAKEVILLE      MOSUNNY   75  64  69 E5        30.01S
EDEN PRAIRIE   CLOUDY    79  62  56 S5        29.99F
LAKEVILLE      MOSUNNY   75  64  69 E5        30.01S
SOUTH ST PAUL  MOSUNNY   80  61  53 E8        30.00S
LAKE ELMO      FAIR      79  63  57 E7        30.02F
$$
MNZ001>005-007-008-013>017-022>024-027-028-302100-
   Northwest Minnesota

CITY           SKY/WX    TMP DP  RH WIND       PRES   REMARKS
BEMIDJI        CLOUDY    70  62  77 SE3       30.02F
HALLOCK        MOSUNNY   81  64  57 S17G23    29.89S
ROSEAU         MOSUNNY   81  64  57 S14G21    29.94F
WARROAD        CLOUDY    79  64  61 S13       29.95F
THIEF RVR FALL PTSUNNY   79  60  52 S15G22    29.96F
CROOKSTON      MOSUNNY   81  61  50 S17G24    29.94F
FOSSTON        PTSUNNY   75  63  64 SE9       29.99F
DETROIT LAKES  MOSUNNY   77  61  57 SE12      30.01F
MOORHEAD       MOSUNNY   79  61  53 SE15      29.96F
PARK RAPIDS    CLOUDY    78  57  48 S10       30.01F
MAHNOMEN       CLOUDY    76  62  62 S7        29.98F
$$
MNZ006-009>011-018-025>026-302100-
   North Central Minnesota

CITY           SKY/WX    TMP DP  RH WIND       PRES   REMARKS
BAUDETTE       CLOUDY    76  62  62 S13       29.98F
FLAG ISLAND    CLOUDY    75  63  64 S9        29.94F
INTL FALLS     PTSUNNY   79  60  52 VRB6      29.99F
WASKISH        CLOUDY    73  63  68 CALM      30.00F
BIG FORK       MOSUNNY   79  61  53 SW9       30.02S
LONGVILLE      MOSUNNY   77  55  47 SE3       30.02F
GRAND RAPIDS   SUNNY     78  54  43 S8        30.04F
CRANE LAKE     SUNNY     75  48  38 W2        30.04F
ORR            MOSUNNY   79  52  38 CALM        N/A
COOK           MOSUNNY   77  54  44 CALM      30.03F
WALKER         CLOUDY    73  59  62 CALM      30.02F
$$
MNZ012-019>021-037-302100-
   Northeast Minnesota

CITY           SKY/WX    TMP DP  RH WIND       PRES   REMARKS
DULUTH         MOSUNNY   74  62  66 E8        30.04F
ELY            SUNNY     75  48  38 S7        30.04S
HIBBING        PTSUNNY   74  53  48 NE5       30.03F
EVELETH        SUNNY     78  46  31 CALM      30.05S
DULUTH HARBOR  MOSUNNY   70  63  78 NE10      30.05S
TWO HARBORS    SUNNY     75  61  60 E6        30.03F
SILVER BAY     SUNNY     73  59  60 E7        30.04F
GRAND MARAIS     N/A     68  59  73 E7        30.06F
G MARAIS ARPRT SUNNY     72  48  43 SE6       30.10S
$$
MNZ029>031-032-039>041-046>048-054>057-064-302100-
   West Central Minnesota

CITY           SKY/WX    TMP DP  RH WIND       PRES   REMARKS
FERGUS FALLS   SUNNY     77  59  53 SE10      30.00S
WHEATON        SUNNY     81  64  57 SE8       29.99S
MORRIS         SUNNY     81  55  41 SE10      29.99S
ALEXANDRIA     SUNNY     78  56  46 SE6       30.02F
ELBOW LAKE     FAIR      77  60  55 SE8       30.00F
WADENA         SUNNY     77  57  50 SE6       30.01F
GLENWOOD       SUNNY     79  57  47 SE6       30.02F
APPLETON       SUNNY     79  57  47 SE9       29.98F
BENSON         SUNNY     79  54  41 S8        30.00S
ORTONVILLE     SUNNY     79  57  47 SE5       29.98S
MADISON        SUNNY     79  57  47 S8        29.98F
WILLMAR        FAIR      79  57  47 E5        30.02F
$$
MNZ033>034-036-042>043-049>051-058-059-302100-
   Central Minnesota

CITY           SKY/WX    TMP DP  RH WIND       PRES   REMARKS
ST CLOUD       MOSUNNY   78  61  55 S6        30.00F
SAUK CENTRE    FAIR      77  57  49 SE3       30.02F
PAYNESVILLE    SUNNY     78  56  46 S5        30.02F
AITKIN         MOSUNNY   81  52  36 CALM      30.01F
PINE RIVER     SUNNY     77  57  50 S6        30.05F
BRAINERD       MOSUNNY   79  58  48 S9        30.02F
STAPLES        SUNNY     79  54  41 S8        30.02S
LONG PRAIRIE   FAIR      75  55  50 E6        30.02F
LITTLE FALLS   MOSUNNY   77  55  47 SE7       30.01F
LITCHFIELD     MOSUNNY   79  57  47 CALM      30.02S
BUFFALO        MOSUNNY   78  62  57 S3        30.02S
MAPLE LAKE     SUNNY     78  64  63 SE3       30.02S
HUTCHINSON     MOSUNNY   79  59  50 S6        30.02S
$$
MNZ037-044-045-052-053-302100-
   East Central Minnesota

CITY           SKY/WX    TMP DP  RH WIND       PRES   REMARKS
PRINCETON      PTSUNNY   81  63  54 NE3       30.01S
MORA           MOSUNNY   73  59  60 CALM      30.04S
CAMBRIDGE      PTSUNNY   79  63  57 SE6       30.00S
RUSH CITY      MOSUNNY   75  62  62 SE3       30.02S
MOOSE LAKE     PTSUNNY   77  59  53 CALM      30.01S
HINCKLEY       CLOUDY    75  63  64 E3        30.02S
CLOQUET        MOSUNNY   75  63  64 E8        30.03F
MCGREGOR       MOSUNNY   79  54  41 CALM      30.03S
$$
MNZ071>073-080-081-089-090-097-098-302100-
   Southwest Minnesota

CITY           SKY/WX    TMP DP  RH WIND       PRES   REMARKS
MONTEVIDEO     SUNNY     79  55  44 SE7       30.01F
GRANITE FALLS  SUNNY     78  56  47 E6        30.01F
CANBY          SUNNY     80  57  45 SE8       30.00S
MARSHALL       MOSUNNY   78  58  49 S7        30.00F
REDWOOD FALLS  MOSUNNY   79  53  40 VRB5      29.99F
OLIVIA         SUNNY     77  55  47 SE5       30.01S
PIPESTONE      SUNNY     75  55  50 SE7       30.01S
WINDOM         SUNNY     79  54  41 S6        30.02S
WORTHINGTON    MOSUNNY   77  58  51 SE7       30.02F
JACKSON        MOSUNNY   77  55  47 CALM      30.02F
TRACY          SUNNY     78  60  52 E3        30.01S
SLAYTON        SUNNY     77  52  41 S5        30.02F
$$
MNZ065>067-074>077-082>085-091>093-302100-
   South Central Minnesota

CITY           SKY/WX    TMP DP  RH WIND       PRES   REMARKS
MANKATO        MOSUNNY   79  59  50 SW3       30.00F
NEW ULM        SUNNY     79  55  44 S6        30.01S
ST JAMES       MOSUNNY   73  54  49 S7        30.02S
FAIRMONT       PTSUNNY   75  59  57 CALM      30.01S
GLENCOE        MOSUNNY   79  63  57 CALM      30.00F
FARIBAULT      MOSUNNY   79  64  61 CALM      30.01F
OWATONNA       TSTM      72  64  78 W9        30.03R
WASECA         MOSUNNY   77  64  65 SW5       30.02F
ALBERT LEA     CLOUDY    75  66  73 S7        30.01F
$$
MNZ078>079-086>088-094>096-302100-
   Southeast Minnesota

CITY           SKY/WX    TMP DP  RH WIND       PRES   REMARKS
ROCHESTER      CLOUDY    74  66  76 CALM      30.03S
RED WING       SUNNY     82  59  44 SE8       29.99F
STANTON        CLOUDY    77  64  65 NE5       30.00S
DODGE CENTER   PTSUNNY   75  64  69 SE7       30.03F
WINONA         MOSUNNY   79  61  53 SE7       30.01F
AUSTIN         CLOUDY    73  64  73 E6        30.01F
PRESTON        CLOUDY    74  63  66 E7        30.03F
$$
ABBREVIATIONS USED IN REMARKS
   TC - TEMPERATURES IN CELSIUS
  WCI - WIND CHILL INDEX
   HX - HEAT INDEX
  VSB - VISIBILITY
$$



USA.gov is the U.S. government's official web portal to all federal, state and local government web resources and services.